Home > Weather > Plymouth > Past weeks

Flag for United Kingdom Weather for the Past 2 Weeks in Plymouth, England, United Kingdom

Now
37 °F

Clear.


Feels Like: 37 °F
Forecast: 45 / 53 °F
Wind: 1 mph from Southwest

Location: Exeter Airport

Current Time: May 1, 2016 at 1:32:13 AM

Latest Report: May 1, 2016 at 12:50 AM


Visibility: 10 mi

Pressure: 30.33 "Hg

Humidity: 87%

Dew Point: 34 °F

Location of PlymouthLocation

Historic Weather in Plymouth — Graph

°F

Plymouth Temperature Yesterday

Maximum temperature yesterday: 55 °F (at 2:50 PM)
Minimum temperature yesterday: 30 °F (at 6:50 AM)
Average temperature yesterday: 47 °F

High & Low Weather Summary for the Past Weeks

 TemperatureHumidityPressure
High61 °F (Apr 20, 3:50 PM)100% (Apr 28, 6:50 AM)30.36 "Hg (Apr 28, 6:50 AM)
Low27 °F (Apr 28, 5:50 AM)34% (Apr 20, 3:50 PM)29.59 "Hg (Apr 16, 12:20 AM)
Average47 °F69%30.07 "Hg
* Reported Apr 16 12:20 AM — May 1 12:20 AM, Plymouth, Weather by CustomWeather, © 2016

Note: Actual official high and low records may vary slightly from our data, if they occured in-between our weather recording intervals... More about our weather records

Advertising

Plymouth Weather History for the Previous 24 Hours

Scroll right to see more
 ConditionsComfort  
Time TempWeatherWind HumidityBarometerVisibility
12:20 AM
Sun, May 1
39 °FClear.2 mph81%30.33 "Hg10 mi
11:50 PM
Sat, Apr 30
39 °FClear.3 mph81%30.33 "Hg10 mi
11:20 PM41 °FClear.3 mph76%30.33 "Hg10 mi
10:50 PM43 °FClear.2 mph76%30.33 "Hg10 mi
10:20 PM43 °FClear.2 mph76%30.33 "Hg10 mi
9:50 PM45 °FClear.3 mph71%30.33 "Hg10 mi
9:20 PM45 °FSunny.5 mph66%30.33 "Hg10 mi
8:50 PM46 °FSunny.6 mph62%30.30 "Hg10 mi
8:20 PM48 °FSunny.7 mph58%30.30 "Hg10 mi
7:50 PM50 °FSunny.13 mph50%30.27 "Hg10 mi
7:20 PM52 °FSunny.13 mph47%30.27 "Hg10 mi
6:50 PM52 °FSunny.12 mph50%30.27 "Hg10 mi
6:20 PM52 °FSunny.12 mph47%30.27 "Hg10 mi
5:50 PM54 °FPassing clouds.14 mph41%30.27 "HgN/A
5:20 PM54 °FPassing clouds.14 mph35%30.24 "HgN/A
4:50 PM55 °FSunny.15 mph36%30.24 "Hg10 mi
4:20 PM55 °FPassing clouds.16 mph38%30.24 "HgN/A
3:50 PM55 °FSunny.16 mph41%30.24 "Hg10 mi
3:20 PM55 °FPassing clouds.17 mph36%30.24 "HgN/A
2:50 PM55 °FSunny.13 mph38%30.21 "Hg10 mi
2:20 PM54 °FPassing clouds.14 mph44%30.21 "HgN/A
1:50 PM54 °FPassing clouds.14 mph41%30.21 "HgN/A
1:20 PM54 °FPassing clouds.15 mph47%30.21 "HgN/A
12:50 PM54 °FPassing clouds.13 mph47%30.21 "HgN/A
12:20 PM54 °FScattered clouds.13 mph47%30.21 "HgN/A
11:50 AM52 °FScattered clouds.13 mph50%30.21 "HgN/A
11:20 AM52 °FScattered clouds.13 mph54%30.21 "HgN/A
10:20 AM50 °FScattered clouds.12 mph67%30.18 "HgN/A
8:50 AM43 °FPassing clouds.6 mph81%30.18 "HgN/A
8:20 AM39 °FSunny.1 mph87%30.18 "Hg10 mi
7:50 AM37 °FSunny.No wind87%30.15 "Hg10 mi
7:20 AM36 °FSunny.5 mph87%30.15 "Hg10 mi
6:50 AM30 °FSunny.3 mph93%30.15 "Hg10 mi
6:20 AM32 °FClear.1 mph93%30.12 "Hg10 mi
1:20 AM36 °FClear.5 mph87%30.04 "Hg10 mi
Weather by CustomWeather, © 2016

See weather overviewHow to use our weather pages